Hilo, HI

4:02 PM HST on December 17, 2017 (GMT -1000)
Hilo International

Weather History for PHTO - October, 2010

Change the Weather History Date:

Saturday, October 30, 2010

  Actual Average Record
Temperature  
Mean Temperature 75 °F 75 °F  
Max Temperature 79 °F 82 °F 88 °F (2015)
Min Temperature 70 °F 68 °F 62 °F (1954)
Degree Days  
Heating Degree Days 0 0  
Month to date heating degree days 0 0  
Since 1 July heating degree days 0 0  
Cooling Degree Days 10 10  
Month to date cooling degree days 301 318  
Year to date cooling degree days 2769 2726  
Growing Degree Days 22 (Base 50)    
Moisture  
Dew Point 69 °F    
Average Humidity 86    
Maximum Humidity 97    
Minimum Humidity 74    
Precipitation  
Precipitation 0.73 in 0.38 in 2.62 in (1990)
Month to date precipitation 8.17 9.37  
Year to date precipitation 45.22 99.25  
Snow  
Snow 0.00 in - - ()
Month to date snowfall 0.0  
Since 1 July snowfall 0.0  
Since 1 September snowfall 0.0  
Snow Depth 0.00 in    
Sea Level Pressure  
Sea Level Pressure 30.05 in    
Wind  
Wind Speed 5 mph (West)    
Max Wind Speed 14 mph    
Max Gust Speed 17 mph    
Visibility 8 miles    
Events Rain    
T = Trace of Precipitation, MM = Missing Value Source: NWS Daily Summary

Daily Weather History Graph

Daily Weather History Graph

Search for Another Location

Airport or City:

Trip Planner

Search our weather history database for the weather conditions in past years. The results will help you decide how hot, cold, wet, or windy it might be!

Date:

Astronomy

Oct. 30, 2010 Rise Set
Actual Time 6:20 AM HST 5:46 PM HST
Civil Twilight 5:57 AM HST 6:09 PM HST
Nautical Twilight 5:31 AM HST 6:35 PM HST
Astronomical Twilight 5:06 AM HST 7:01 PM HST
Moon No Moon Rise 1:01 PM HST (10/30)
Length of Visible Light 12h 11m
Length of Day
11h 26m
Last Quarter, 46% of the Moon is Illuminated
Oct 30
Last Quarter
Nov 5
New
Nov 13
First Quarter
Nov 21
Full
Nov 28
Last Quarter

Hourly Weather History & Observations

Time (HST) Temp. Dew Point Humidity Pressure Visibility Wind Dir Wind Speed Gust Speed Precip Events Conditions
12:19 AM 71.6 °F 69.8 °F 94% 30.08 in 10.0 mi WSW 4.6 mph - 0.01 in   Overcast
12:34 AM 71.6 °F 68.0 °F 88% 30.08 in 10.0 mi WSW 5.8 mph - 0.01 in   Overcast
12:53 AM 71.1 °F 68.0 °F 90% 30.07 in 10.0 mi WSW 3.5 mph - 0.01 in Rain Light Rain
1:05 AM 69.8 °F 68.0 °F 94% 30.07 in 7.0 mi Calm Calm - 0.01 in Rain Rain
1:23 AM 69.8 °F 68.0 °F 94% 30.06 in 10.0 mi SW 4.6 mph - 0.03 in   Overcast
1:53 AM 70.0 °F 68.0 °F 93% 30.05 in 10.0 mi West 3.5 mph - 0.03 in   Overcast
2:53 AM 70.0 °F 68.0 °F 93% 30.04 in 7.0 mi SSW 3.5 mph - 0.01 in Rain Heavy Rain
3:49 AM 69.8 °F 68.0 °F 94% 30.05 in 4.0 mi Calm Calm - 0.09 in Rain Heavy Rain
3:53 AM 70.0 °F 68.0 °F 93% 30.04 in 5.0 mi SW 4.6 mph - 0.13 in Rain Rain
4:53 AM 70.0 °F 68.0 °F 93% 30.04 in 10.0 mi West 3.5 mph - 0.02 in   Overcast
5:53 AM 70.0 °F 66.9 °F 90% 30.04 in 10.0 mi WSW 5.8 mph - N/A   Mostly Cloudy
6:53 AM 71.1 °F 66.9 °F 87% 30.05 in 10.0 mi West 5.8 mph - N/A   Mostly Cloudy
7:53 AM 72.0 °F 68.0 °F 87% 30.07 in 6.0 mi East 13.8 mph - 0.00 in Rain Light Rain
8:00 AM 71.6 °F 68.0 °F 88% 30.07 in 3.0 mi ENE 5.8 mph - 0.01 in Rain Rain
8:39 AM 71.6 °F 69.8 °F 94% 30.08 in 10.0 mi WNW 5.8 mph - 0.06 in   Mostly Cloudy
8:53 AM 71.1 °F 69.1 °F 93% 30.07 in 10.0 mi WNW 9.2 mph - 0.06 in   Mostly Cloudy
9:39 AM 71.6 °F 68.0 °F 88% 30.09 in 4.0 mi WNW 5.8 mph - 0.00 in Rain Heavy Rain
9:53 AM 72.0 °F 69.1 °F 91% 30.09 in 10.0 mi West 5.8 mph - 0.04 in Rain Light Rain
10:27 AM 71.6 °F 69.8 °F 94% 30.08 in 2.0 mi Calm Calm - 0.09 in Rain Heavy Rain
10:38 AM 71.6 °F 69.8 °F 94% 30.08 in 2.0 mi NE 4.6 mph - 0.16 in Rain Heavy Rain
10:53 AM 71.1 °F 69.1 °F 93% 30.07 in 6.0 mi NNW 5.8 mph - 0.22 in Rain Light Rain
11:53 AM 73.0 °F 69.1 °F 87% 30.05 in 10.0 mi NW 3.5 mph - 0.00 in   Overcast
12:53 PM 75.9 °F 69.1 °F 79% 30.01 in 10.0 mi West 3.5 mph - 0.01 in   Mostly Cloudy
1:53 PM 75.9 °F 66.9 °F 74% 29.99 in 10.0 mi Calm Calm - N/A   Mostly Cloudy
2:53 PM 75.9 °F 69.1 °F 79% 29.99 in 10.0 mi ESE 11.5 mph 17.3 mph N/A   Mostly Cloudy
3:02 PM 75.2 °F 68.0 °F 78% 29.99 in 10.0 mi East 8.1 mph - N/A   Mostly Cloudy
3:45 PM 71.6 °F 69.8 °F 94% 29.99 in 2.5 mi NE 8.1 mph - 0.02 in Rain Heavy Rain
3:53 PM 72.0 °F 70.0 °F 93% 29.99 in 2.5 mi NE 5.8 mph - 0.09 in Rain Heavy Rain
4:00 PM 71.6 °F 69.8 °F 94% 30.00 in 3.0 mi ENE 5.8 mph - 0.03 in Rain Light Rain
4:24 PM 71.6 °F 69.8 °F 94% 30.01 in 3.0 mi Calm Calm - 0.04 in Rain Light Rain
4:53 PM 72.0 °F 69.1 °F 91% 30.01 in 3.0 mi West 5.8 mph - 0.04 in   Overcast
5:12 PM 71.6 °F 69.8 °F 94% 30.02 in 3.0 mi Calm Calm - 0.00 in Rain Light Rain
5:26 PM 71.6 °F 69.8 °F 94% 30.02 in 3.0 mi Calm Calm - 0.02 in   Overcast
5:38 PM 71.6 °F 69.8 °F 94% 30.03 in 3.0 mi ENE 4.6 mph - 0.02 in   Overcast
5:53 PM 72.0 °F 69.1 °F 91% 30.02 in 3.0 mi NE 5.8 mph - 0.02 in Rain Light Rain
6:28 PM 71.6 °F 68.0 °F 88% 30.03 in 10.0 mi WSW 8.1 mph - 0.02 in   Overcast
6:53 PM 71.1 °F 68.0 °F 90% 30.03 in 10.0 mi WSW 6.9 mph - 0.02 in   Overcast
7:06 PM 71.6 °F 68.0 °F 88% 30.04 in 10.0 mi West 3.5 mph - N/A   Overcast
7:16 PM 71.6 °F 68.0 °F 88% 30.04 in 10.0 mi West 5.8 mph - 0.00 in   Overcast
7:53 PM 71.1 °F 69.1 °F 93% 30.04 in 10.0 mi WSW 3.5 mph - 0.00 in   Overcast
8:53 PM 71.1 °F 68.0 °F 90% 30.06 in 10.0 mi SSW 4.6 mph - 0.00 in   Overcast
9:53 PM 71.1 °F 68.0 °F 90% 30.07 in 10.0 mi Calm Calm - 0.01 in   Overcast
10:01 PM 71.6 °F 68.0 °F 88% 30.07 in 10.0 mi West 3.5 mph - N/A   Overcast
10:14 PM 69.8 °F 68.0 °F 94% 30.07 in 8.0 mi West 8.1 mph - 0.01 in Rain Light Rain
10:53 PM 70.0 °F 68.0 °F 93% 30.06 in 10.0 mi WSW 4.6 mph - 0.02 in   Mostly Cloudy
11:03 PM 69.8 °F 68.0 °F 94% 30.07 in 10.0 mi West 3.5 mph - N/A   Overcast
11:19 PM 69.8 °F 68.0 °F 94% 30.06 in 10.0 mi WSW 6.9 mph - N/A   Overcast
11:53 PM 71.1 °F 66.9 °F 87% 30.06 in 10.0 mi West 4.6 mph - N/A   Overcast